Date,TemperatureHighF,TemperatureAvgF,TemperatureLowF,DewpointHighF,DewpointAvgF,DewpointLowF,HumidityHigh,HumidityAvg,HumidityLow,PressureMaxIn,PressureMinIn,WindSpeedMaxMPH,WindSpeedAvgMPH,GustSpeedMaxMPH,PrecipitationSumIn
2013-2-1,35,26,7,-100,-100,-100,0,0,100,0.00,40.00,8,2,12,0.00
2013-2-2,35,33,28,-100,-100,-100,0,0,100,0.00,40.00,9,3,16,0.00
2013-2-3,41,32,21,-100,-100,-100,0,0,100,0.00,40.00,8,3,12,0.00
2013-2-4,43,33,24,-100,-100,-100,0,0,100,0.00,40.00,10,1,15,0.00
2013-2-5,41,34,27,-100,-100,-100,0,0,100,0.00,40.00,8,1,10,0.00
2013-2-6,44,37,32,-100,-100,-100,0,0,100,0.00,40.00,5,1,9,0.00
2013-2-7,44,34,27,-100,-100,-100,0,0,100,0.00,40.00,5,0,6,0.00
2013-2-8,43,31,24,-100,-100,-100,0,0,100,0.00,40.00,5,0,6,0.00
2013-2-9,40,30,22,-100,-100,-100,0,0,100,0.00,40.00,7,1,10,0.00
2013-2-10,29,23,16,-100,-100,-100,0,0,100,0.00,40.00,10,7,16,0.00
2013-2-11,34,22,11,-100,-100,-100,0,0,100,0.00,40.00,6,2,8,0.00
2013-2-12,42,32,20,-100,-100,-100,0,0,100,0.00,40.00,5,1,7,0.00
2013-2-13,43,36,28,-100,-100,-100,0,0,100,0.00,40.00,11,4,18,0.00
2013-2-14,28,23,15,-100,-100,-100,0,0,100,0.00,40.00,15,4,20,0.00
2013-2-15,36,27,14,-100,-100,-100,0,0,100,0.00,40.00,5,1,7,0.00
2013-2-16,52,41,35,-100,-100,-100,0,0,100,0.00,40.00,7,2,8,0.00
2013-2-17,42,34,22,-100,-100,-100,0,0,100,0.00,40.00,13,4,18,0.00
2013-2-18,22,16,3,-100,-100,-100,0,0,100,0.00,40.00,10,4,14,0.00
2013-2-19,21,9,-3,-100,-100,-100,0,0,100,0.00,40.00,7,3,11,0.00
2013-2-20,29,16,6,-100,-100,-100,0,0,100,0.00,40.00,6,1,10,0.00
2013-2-21,33,22,16,-100,-100,-100,0,0,100,0.00,40.00,1,0,4,0.00
2013-2-22,43,28,16,-100,-100,-100,0,0,100,0.00,40.00,6,0,7,0.00
2013-2-23,45,34,27,-100,-100,-100,0,0,100,0.00,40.00,8,2,11,0.00
2013-2-24,42,32,24,-100,-100,-100,0,0,100,0.00,40.00,10,4,15,0.00
2013-2-25,47,33,22,-100,-100,-100,0,0,100,0.00,40.00,6,1,7,0.00
2013-2-26,37,33,25,-100,-100,-100,0,0,100,0.00,40.00,9,3,15,0.00
2013-2-27,36,26,20,-100,-100,-100,0,0,100,0.00,40.00,7,1,10,0.00
2013-2-28,44,30,20,-100,-100,-100,0,0,100,0.00,40.00,8,1,11,0.00